Погода в Легаспи

Филиппины     13°09′25″N   123°44′03″E
темп.,
°C
ветер,
м/с
пор.,
м/с
влажн.,
%
обл.,
%
осадки,
мм/ч
давл.,
гПа
погр.,
м
14 апреля, ср
ср1423:00+25св238798 0.1 1012258
02:00+24с2389100 0.1 1010230
05:00+24с249195 0.0 1010193
08:00+26ссв3481100 0.0 1012593
11:00+29св447074 0.0 1011840
14:00+28св457310 1.1 1009732
17:00+27ссв467866 1.1 1009600
20:00+25с468872 1.4 1011375
15 апреля, чт
чт1523:00+25с349064 0.1 1011240
02:00+24с249186 0.1 1009226
05:00+24с2490100 0.0 1009238
08:00+26ссв2385100 0.8 1011301
11:00+28ссв3371100 1.8 1011745
14:00+28ссв4573100 3.0 1008784
17:00+26с5784100 0.6 1009540
20:00+25с4785100 0.7 1011469
16 апреля, пт
пт1623:00+25с4785100 0.0 1011428
02:00+25с4789100 0.1 1009489
05:00+25с4788100 0.1 1010448
08:00+27ссв468091 0.4 1012742
11:00+29ссв4567100 0.3 10111038
14:00+28св3567100 0.7 1009889
17:00+27ссв5777100 0.3 1009704
20:00+25с468926 0.6 1012407
17 апреля, сб
сб1723:00+25с4786100 0.6 1012374
02:00+24с478815 1.0 1009438
05:00+25с4886100 0.7 1010496
08:00+27с587686 1.4 1011840
11:00+27с5875100 1.9 1011901
14:00+28с687299 3.2 10081010
17:00+26с6982100 0.4 1008894
20:00+25с61087100 0.6 1010762
18 апреля, вс
вс1823:00+25с61186100 0.3 1010813
02:00+24ссз5108471 0.8 1008797
05:00+24ссз5984100 0.5 1007794
08:00+25ссз51081100 1.7 1008948
11:00+26ссз61280100 2.3 10071129
14:00+26ссз61185100 5.7 10051070
17:00+24ссз61291100 4.4 1004947
20:00+23сз51092100 14.1 1006745